Weather History for PHLI - February, 2014

Change the Weather History Date:

Thursday, February 13, 2014

  Actual Average Record
Temperature  
Mean Temperature 69 °F 72 °F  
Max Temperature 73 °F 78 °F 85 °F (1981)
Min Temperature 65 °F 65 °F 55 °F (1986)
Degree Days  
Heating Degree Days 0 0  
Month to date heating degree days 0 0  
Since 1 July heating degree days 0 0  
Cooling Degree Days 4 7  
Month to date cooling degree days 68 91  
Year to date cooling degree days 264 300  
Growing Degree Days 20 (Base 50)    
Moisture  
Dew Point 67 °F    
Average Humidity 91    
Maximum Humidity 100    
Minimum Humidity 81    
Precipitation  
Precipitation 1.12 in 0.11 in 2.40 in (1992)
Month to date precipitation 4.55 1.43  
Year to date precipitation 6.26 5.18  
Snow  
Snow 0.00 in - - ()
Month to date snowfall 0.0  
Since 1 July snowfall 0.0  
Snow Depth 0.00 in    
Sea Level Pressure  
Sea Level Pressure 29.99 in    
Wind  
Wind Speed 13 mph (North)    
Max Wind Speed 25 mph    
Max Gust Speed 33 mph    
Visibility 5 miles    
Events Rain , Tornado    
T = Trace of Precipitation, MM = Missing Value Source: NWS Daily Summary

Daily Weather History Graph

Daily Weather History Graph

Search for Another Location

Airport or City:

Trip Planner

Search our weather history database for the weather conditions in past years. The results will help you decide how hot, cold, wet, or windy it might be!

Date:

Astronomy

Feb. 13, 2014 Rise Set
Actual Time 7:09 AM HST 6:33 PM HST
Civil Twilight 6:46 AM HST 6:56 PM HST
Nautical Twilight 6:20 AM HST 7:22 PM HST
Astronomical Twilight 5:54 AM HST 7:49 PM HST
Moon 5:51 PM HST (2/13) 6:08 AM HST (2/13)
Length of Visible Light 12h 09m
Length of Day
11h 24m
Waxing Gibbous, 99% of the Moon is Illuminated
Feb 13
Waxing Gibbous
Feb 14
Full
Feb 22
Last Quarter
Feb 28
New
Mar 8
First Quarter

Hourly Weather History & Observations

Time (HST) Temp. Dew Point Humidity Pressure Visibility Wind Dir Wind Speed Gust Speed Precip Events Conditions
12:40 AM 73.4 °F 69.8 °F 88% 29.93 in 10.0 mi ENE 9.2 mph - N/A   Mostly Cloudy
12:53 AM 73.0 °F 69.1 °F 87% 29.93 in 10.0 mi ENE 12.7 mph - N/A   Mostly Cloudy
1:16 AM 73.4 °F 69.8 °F 88% 29.94 in 10.0 mi ENE 11.5 mph - N/A   Mostly Cloudy
1:24 AM 73.4 °F 69.8 °F 88% 29.94 in 10.0 mi East 8.1 mph - N/A   Mostly Cloudy
1:53 AM 73.0 °F 70.0 °F 90% 29.94 in 10.0 mi ENE 6.9 mph - N/A   Mostly Cloudy
2:19 AM 71.6 °F 69.8 °F 94% 29.94 in 10.0 mi East 8.1 mph - N/A   Mostly Cloudy
2:53 AM 73.0 °F 69.1 °F 87% 29.92 in 10.0 mi ENE 9.2 mph - N/A   Mostly Cloudy
3:53 AM 73.0 °F 69.1 °F 87% 29.93 in 10.0 mi ENE 6.9 mph - N/A   Mostly Cloudy
3:58 AM 73.4 °F 69.8 °F 88% 29.94 in 10.0 mi ENE 5.8 mph - N/A   Mostly Cloudy
4:12 AM 73.4 °F 69.8 °F 88% 29.94 in 10.0 mi ENE 6.9 mph - N/A   Overcast
4:30 AM 73.4 °F 69.8 °F 88% 29.94 in 10.0 mi NE 5.8 mph - N/A   Overcast
4:53 AM 72.0 °F 70.0 °F 93% 29.94 in 10.0 mi NE 3.5 mph - N/A   Overcast
5:37 AM 71.6 °F 69.8 °F 94% 29.95 in 10.0 mi North 3.5 mph - 0.01 in Rain Light Rain
5:51 AM 72.0 °F 70.0 °F 93% 29.95 in 10.0 mi NW 3.5 mph - 0.01 in   Mostly Cloudy
6:03 AM 71.6 °F 69.8 °F 94% 29.95 in 10.0 mi NNW 4.6 mph - N/A   Scattered Clouds
6:53 AM 71.1 °F 69.1 °F 93% 29.96 in 10.0 mi NNW 8.1 mph - 0.00 in Rain Light Rain
7:17 AM 69.8 °F 69.8 °F 100% 29.97 in 10.0 mi North 9.2 mph - 0.00 in Tornado Funnel Cloud
7:20 AM 69.8 °F 69.8 °F 100% 29.97 in 10.0 mi North 10.4 mph - 0.00 in   Scattered Clouds
7:30 AM 69.8 °F 69.8 °F 100% 29.98 in 9.0 mi NNW 11.5 mph - 0.00 in   Scattered Clouds
7:46 AM 69.8 °F 69.8 °F 100% 30.00 in 10.0 mi NNW 10.4 mph - 0.00 in   Mostly Cloudy
7:53 AM 71.1 °F 69.1 °F 93% 30.00 in 10.0 mi NW 9.2 mph - 0.00 in   Mostly Cloudy
8:14 AM 66.2 °F 64.4 °F 94% 30.02 in 2.0 mi North 12.7 mph - 0.04 in Rain Heavy Rain
8:21 AM 66.2 °F 64.4 °F 94% 30.02 in 3.0 mi North 16.1 mph - 0.05 in Rain Rain
8:53 AM 66.0 °F 62.1 °F 87% 30.03 in 10.0 mi North 16.1 mph 21.9 mph 0.05 in   Overcast
9:53 AM 66.0 °F 62.1 °F 87% 30.03 in 8.0 mi North 19.6 mph 27.6 mph 0.00 in Rain Light Rain
10:53 AM 66.0 °F 61.0 °F 84% 30.03 in 10.0 mi North 21.9 mph 28.8 mph 0.00 in Rain Light Rain
11:12 AM 66.2 °F 62.6 °F 88% 30.03 in 10.0 mi North 19.6 mph 29.9 mph 0.00 in Rain Light Rain
11:39 AM 66.2 °F 62.6 °F 88% 30.02 in 5.0 mi North 19.6 mph - 0.00 in Rain Light Rain
11:53 AM 66.0 °F 63.0 °F 90% 30.01 in 7.0 mi North 16.1 mph - 0.00 in Rain Light Rain
12:12 PM 66.2 °F 64.4 °F 94% 30.01 in 3.0 mi North 15.0 mph - 0.00 in Rain Light Rain
12:41 PM 66.2 °F 64.4 °F 94% 30.00 in 2.0 mi North 11.5 mph - 0.00 in   Overcast
12:53 PM 66.9 °F 66.0 °F 97% 29.99 in 2.0 mi North 15.0 mph - 0.00 in   Overcast
12:57 PM 68.0 °F 66.2 °F 94% 30.00 in 1.5 mi North 13.8 mph - N/A   Overcast
1:23 PM 66.2 °F 66.2 °F 100% 29.99 in 1.0 mi North 17.3 mph - 0.02 in Rain Light Rain
1:53 PM 66.9 °F 66.0 °F 97% 29.98 in 1.2 mi North 17.3 mph - 0.08 in Rain Rain
2:08 PM 66.2 °F 66.2 °F 100% 29.97 in 1.2 mi North 20.7 mph 25.3 mph 0.03 in   Overcast
2:53 PM 66.9 °F 66.0 °F 97% 29.96 in 1.2 mi North 16.1 mph 23.0 mph 0.08 in   Overcast
3:01 PM 66.2 °F 66.2 °F 100% 29.96 in 1.5 mi North 15.0 mph - 0.01 in   Overcast
3:20 PM 66.2 °F 66.2 °F 100% 29.95 in 1.0 mi North 17.3 mph - 0.02 in   Overcast
3:53 PM 66.9 °F 66.0 °F 97% 29.94 in 1.8 mi North 17.3 mph - 0.05 in   Overcast
4:11 PM 66.2 °F 64.4 °F 94% 29.96 in 1.5 mi North 15.0 mph - 0.01 in   Overcast
4:23 PM 66.2 °F 66.2 °F 100% 29.96 in 1.5 mi North 10.4 mph 19.6 mph 0.01 in   Overcast
4:30 PM 66.2 °F 64.4 °F 94% 29.97 in 1.5 mi North 11.5 mph - 0.02 in   Overcast
4:42 PM 66.2 °F 66.2 °F 100% 29.97 in 2.0 mi North 11.5 mph - 0.03 in Rain Light Rain
4:53 PM 66.9 °F 66.0 °F 97% 29.96 in 2.5 mi North 11.5 mph - 0.04 in Rain Light Rain
4:58 PM 66.2 °F 66.2 °F 100% 29.97 in 2.5 mi North 11.5 mph - 0.00 in Rain Light Rain
5:05 PM 66.2 °F 66.2 °F 100% 29.97 in 2.5 mi North 11.5 mph - 0.00 in Rain Light Rain
5:19 PM 66.2 °F 64.4 °F 94% 29.97 in 2.5 mi North 12.7 mph - 0.02 in Rain Rain
5:53 PM 66.0 °F 66.0 °F 100% 29.99 in 2.0 mi North 13.8 mph - 0.07 in   Overcast
6:17 PM 66.2 °F 66.2 °F 100% 29.99 in 2.5 mi North 11.5 mph - 0.01 in Rain Light Rain
6:39 PM 66.2 °F 64.4 °F 94% 29.99 in 3.0 mi North 12.7 mph - 0.02 in Rain Light Rain
6:43 PM 66.2 °F 64.4 °F 94% 29.99 in 2.5 mi North 12.7 mph - 0.02 in Rain Rain
6:50 PM 66.2 °F 66.2 °F 100% 29.99 in 2.5 mi North 13.8 mph - 0.03 in Rain Rain
6:53 PM 66.9 °F 66.0 °F 97% 29.99 in 2.5 mi North 15.0 mph - 0.04 in Rain Rain
7:05 PM 66.2 °F 66.2 °F 100% 30.00 in 2.0 mi North 10.4 mph - 0.01 in Rain Rain
7:13 PM 66.2 °F 66.2 °F 100% 30.00 in 2.0 mi North 11.5 mph - 0.04 in Rain Rain
7:23 PM 66.2 °F 66.2 °F 100% 30.01 in 1.8 mi North 11.5 mph - 0.08 in Rain Rain
7:25 PM 66.2 °F 66.2 °F 100% 30.01 in 2.0 mi North 11.5 mph - 0.08 in Rain Rain
7:28 PM 66.2 °F 66.2 °F 100% 30.01 in 1.8 mi North 11.5 mph - 0.09 in Rain Heavy Rain
7:49 PM 66.2 °F 66.2 °F 100% 30.02 in 2.0 mi North 16.1 mph - 0.19 in Rain Heavy Rain
7:53 PM 66.9 °F 66.0 °F 97% 30.02 in 1.8 mi North 10.4 mph - 0.21 in Rain Heavy Rain
8:17 PM 66.2 °F 66.2 °F 100% 30.02 in 3.0 mi North 10.4 mph - 0.19 in Rain Rain
8:53 PM 68.0 °F 66.0 °F 93% 30.02 in 9.0 mi NNE 16.1 mph 24.2 mph 0.19 in Rain Light Rain
9:53 PM 69.1 °F 66.0 °F 90% 30.03 in 9.0 mi NNE 16.1 mph 24.2 mph 0.07 in   Overcast
10:37 PM 68.0 °F 66.2 °F 94% 30.04 in 1.8 mi North 15.0 mph - 0.04 in Rain Heavy Rain
10:48 PM 68.0 °F 66.2 °F 94% 30.05 in 2.0 mi North 13.8 mph - 0.07 in Rain Heavy Rain
10:53 PM 68.0 °F 66.0 °F 93% 30.05 in 2.0 mi NNW 9.2 mph 19.6 mph 0.09 in Rain Heavy Rain
10:57 PM 66.2 °F 66.2 °F 100% 30.05 in 1.8 mi North 6.9 mph 17.3 mph 0.03 in Rain Heavy Rain
11:18 PM 66.2 °F 66.2 °F 100% 30.04 in 2.0 mi North 9.2 mph - 0.12 in Rain Rain
11:27 PM 68.0 °F 66.2 °F 94% 30.04 in 7.0 mi NNE 18.4 mph 23.0 mph 0.13 in Rain Light Rain
11:53 PM 68.0 °F 66.0 °F 93% 30.04 in 10.0 mi NNE 16.1 mph - 0.13 in Rain Light Rain